Location: Unspecified
(0.0000°N, 0.0000°E)
Time: 23:08:38
(UTC+00:00)

N. Korean satellite - Pass Details

Date: 17 April 2018
Orbit: 458 x 514 km, 97.2° (Epoch: 26 April)

Event Time Altitude Azimuth Distance (km) Brightness Sun altitude
Rises 18:50:19 0° 193° (SSW) 2,623 10.3 -12.5°
Reaches altitude 10° 18:52:49 10° 210° (SSW) 1,736 9.6 -13.1°
Maximum altitude 18:55:38 20° 259° (W) 1,214 9.5 -13.8°
Drops below altitude 10° 18:58:27 10° 308° (NW) 1,728 10.4 -14.5°
Sets 19:00:55 0° 325° (NW) 2,607 11.0 -15.1°
